This demonstration page uses our WeatherBlox Daily Observations layout. Learn more.

Left ArrowRight Arrow

34.16533, -84.80231

Hourly Observations for March 30, 2017

Temp ( °F °C ) Dew Point ( °F °C ) Humidity (%) Winds ( mph kmh ) Pressure ( in mb ) Visibility ( mi km ) Precip ( " mm )
12:53 am 00:53 Mostly Clear 62 16.7 58 14.4 86 86 Calm 29.93 1014 10 16 0.00 0.00
1:53 am 01:53 Mostly Clear 63 17.2 58 14.4 84 84 SSE 3 6 29.92 1013 10 16 0.00 0.00
2:53 am 02:53 Clear 63 17.2 58 14.4 84 84 SE 6 9 29.91 1013 10 16 0.00 0.00
3:53 am 03:53 Clear 64 17.8 58 14.4 81 81 SE 6 9 29.91 1013 10 16 0.00 0.00
4:53 am 04:53 Clear 63 17.2 58 14.4 84 84 Calm 29.91 1013 10 16 0.00 0.00
5:53 am 05:53 Clear 62 16.7 58 14.4 86 86 SE 3 6 29.91 1013 10 16 0.00 0.00
6:53 am 06:53 Clear 61 16.1 57 13.9 87 87 Calm 29.92 1013 10 16 0.00 0.00
7:53 am 07:53 Sunny 59 15 57 13.9 93 93 Calm 29.95 1014 9 14 0.00 0.00
8:53 am 08:53 Sunny 63 17.2 58 14.4 84 84 Calm 29.97 1015 10 16 0.00 0.00
9:53 am 09:53 Cloudy 66 18.9 57 13.9 73 73 SSE 5 7 29.97 1015 10 16 0.00 0.00
10:53 am 10:53 Sunny 69 20.6 57 13.9 66 66 SSE 5 7 29.95 1014 10 16 0.00 0.00
11:53 am 11:53 Sunny 72 22.2 56 13.3 57 57 S 9 15 29.93 1014 10 16 0.00 0.00
12:39 pm 12:39 Mostly Cloudy 75 23.9 52 11.1 45 45 SE 13 20 29.91 1013 10 16 0.00 0.00
12:53 pm 12:53 Mostly Cloudy 75 23.9 51 10.6 43 43 SSE 10 17 29.89 1012 10 16 0.00 0.00
1:29 pm 13:29 Mostly Cloudy 77 25 50 10 39 39 SSE 15 24 29.88 1012 10 16 0.00 0.00
1:53 pm 13:53 Partly Cloudy 78 25.6 48 8.9 35 35 S 13 20 29.85 1011 10 16 0.00 0.00
2:53 pm 14:53 Sunny 80 26.7 47 8.3 31 31 S 12 19 29.81 1010 10 16 0.00 0.00
3:53 pm 15:53 Sunny 79 26.1 47 8.3 32 32 S 16 26 29.78 1009 10 16 0.00 0.00
4:53 pm 16:53 Sunny 80 26.7 49 9.4 34 34 S 15 24 29.77 1008 10 16 0.00 0.00
5:53 pm 17:53 Mostly Sunny 78 25.6 50 10 37 37 S 12 19 29.76 1008 10 16 0.00 0.00
6:53 pm 18:53 Mostly Sunny 77 25 52 11.1 42 42 VRB 6 9 29.75 1007 10 16 0.00 0.00
7:53 pm 19:53 Mostly Sunny 75 23.9 53 11.7 46 46 SSW 8 13 29.75 1007 10 16 0.00 0.00
8:53 pm 20:53 Mostly Cloudy 72 22.2 54 12.2 53 53 undefined N/A 29.77 1008 10 16 0.00 0.00
9:11 pm 21:11 Cloudy with Nearby Thunderstorms 67 19.4 57 13.9 71 71 VRB 3 6 29.80 1009 10 16 0.00 0.03
9:34 pm 21:34 Cloudy with Thunderstorms 64 17.8 58 14.4 81 81 SSE 10 17 29.80 1009 9 14 0.02 0.51
9:53 pm 21:53 Cloudy with Light Rain 64 17.8 57 13.9 78 78 S 14 22 29.76 1008 10 16 0.03 0.76
10:53 pm 22:53 Mostly Cloudy 64 17.8 57 13.9 78 78 SSE 10 17 29.75 1008 10 16 0.00 0.03
11:53 pm 23:53 Mostly Cloudy 65 18.3 55 12.8 70 70 S 8 13 29.75 1008 10 16 0.00 0.00

Powered by AerisWeather